TimeMST,TemperatureF,Dew PointF,Humidity,Sea Level PressureIn,VisibilityMPH,Wind Direction,Wind SpeedMPH,Gust SpeedMPH,PrecipitationIn,Events,Conditions,WindDirDegrees,DateUTC
12:53 AM,82.9,60.1,46,29.81,10.0,SSE,3.5,-,N/A,,Clear,150,2013-09-02 07:53:00
1:53 AM,81.0,62.1,52,29.80,10.0,SSE,6.9,-,N/A,,Clear,150,2013-09-02 08:53:00
2:53 AM,80.1,60.1,50,29.79,10.0,SE,10.4,-,N/A,,Clear,140,2013-09-02 09:53:00
3:53 AM,79.0,63.0,58,29.81,10.0,SSE,6.9,-,N/A,,Clear,160,2013-09-02 10:53:00
4:53 AM,79.0,63.0,58,29.82,10.0,South,6.9,-,N/A,,Clear,170,2013-09-02 11:53:00
5:53 AM,82.0,62.1,51,29.84,10.0,SSE,12.7,-,N/A,,Partly Cloudy,160,2013-09-02 12:53:00
6:53 AM,77.0,62.1,60,29.91,10.0,SSW,19.6,32.2,N/A,,Partly Cloudy,210,2013-09-02 13:53:00
7:53 AM,77.0,60.1,56,29.92,10.0,South,9.2,-,N/A,,Clear,190,2013-09-02 14:53:00
8:53 AM,80.1,61.0,52,29.92,10.0,ESE,8.1,-,N/A,,Clear,110,2013-09-02 15:53:00
9:53 AM,82.0,59.0,45,29.91,10.0,SE,9.2,-,N/A,,Clear,130,2013-09-02 16:53:00
10:53 AM,87.1,57.9,37,29.86,10.0,ENE,6.9,-,N/A,,Clear,60,2013-09-02 17:53:00
11:53 AM,87.1,59.0,39,29.86,10.0,East,6.9,-,N/A,,Scattered Clouds,100,2013-09-02 18:53:00
12:53 PM,84.9,61.0,44,29.85,10.0,Calm,Calm,-,0.00,,Mostly Cloudy,0,2013-09-02 19:53:00
1:53 PM,91.0,59.0,34,29.81,10.0,South,4.6,-,N/A,,Clear,190,2013-09-02 20:53:00
2:53 PM,96.1,57.0,27,29.76,10.0,ENE,8.1,-,N/A,,Clear,60,2013-09-02 21:53:00
3:53 PM,98.1,50.0,20,29.73,10.0,South,6.9,-,N/A,,Clear,190,2013-09-02 22:53:00
4:53 PM,98.1,51.1,20,29.72,10.0,NW,9.2,-,N/A,,Clear,310,2013-09-02 23:53:00
5:53 PM,96.1,53.1,23,29.72,10.0,West,10.4,-,N/A,,Clear,280,2013-09-03 00:53:00
6:53 PM,93.9,53.1,25,29.74,10.0,WNW,5.8,-,N/A,,Clear,290,2013-09-03 01:53:00
7:53 PM,90.0,55.0,30,29.78,10.0,West,3.5,-,N/A,,Clear,270,2013-09-03 02:53:00
8:53 PM,90.0,55.9,31,29.79,10.0,Variable,3.5,-,N/A,,Partly Cloudy,0,2013-09-03 03:53:00
9:53 PM,86.0,59.0,40,29.81,10.0,Variable,6.9,-,N/A,,Clear,0,2013-09-03 04:53:00
10:53 PM,84.0,61.0,46,29.81,10.0,SSW,4.6,-,N/A,,Clear,200,2013-09-03 05:53:00
11:53 PM,82.9,57.0,41,29.82,10.0,SSE,6.9,-,N/A,,Scattered Clouds,160,2013-09-03 06:53:00